Eveleth, MN

2:38 PM CST on November 22, 2017 (GMT -0600)
Eveleth-Virginia Municipal

Weather History for KEVM - September, 2013

Change the Weather History Date:

Friday, September 6, 2013

  Actual Average Record
Temperature  
Mean Temperature 66 °F -  
Max Temperature 82 °F 70 °F 82 °F (1996)
Min Temperature 50 °F 47 °F 35 °F (2011)
Cooling Degree Days 1    
Growing Degree Days 16 (Base 50)    
Moisture  
Dew Point 60 °F    
Average Humidity 81    
Maximum Humidity 100    
Minimum Humidity 54    
Precipitation  
Precipitation 0.00 in - - ()
Sea Level Pressure  
Sea Level Pressure 29.98 in    
Wind  
Wind Speed 3 mph (WSW)    
Max Wind Speed 14 mph    
Max Gust Speed 17 mph    
Visibility 10 miles    
Events      
Averages and records for this station are not official NWS values.
T = Trace of Precipitation, MM = Missing Value Source: NWS Daily Summary

Daily Weather History Graph

Daily Weather History Graph

Search for Another Location

Airport or City:

Trip Planner

Search our weather history database for the weather conditions in past years. The results will help you decide how hot, cold, wet, or windy it might be!

Date:

Astronomy

Sep. 06, 2013 Rise Set
Actual Time 6:35 AM CDT 7:39 PM CDT
Civil Twilight 6:04 AM CDT 8:11 PM CDT
Nautical Twilight 5:26 AM CDT 8:48 PM CDT
Astronomical Twilight 4:46 AM CDT 9:28 PM CDT
Moon 7:57 AM CDT (9/6) 7:53 PM CDT (9/6)
Length of Visible Light 14h 06m
Length of Day
13h 03m
New Moon, 2% of the Moon is Illuminated
Sep 6
New Moon
Sep 12
First Quarter
Sep 19
Full
Sep 26
Last Quarter
Oct 4
New

Hourly Weather History & Observations

Time (CDT) Temp. Heat Index Dew Point Humidity Pressure Visibility Wind Dir Wind Speed Gust Speed Precip Events Conditions
12:07 AM 51.8 °F - 51.8 °F 100% 30.13 in 10.0 mi Calm Calm - N/A   Clear
12:27 AM 50.0 °F - 50.0 °F 100% 30.12 in 10.0 mi Calm Calm - N/A   Clear
12:47 AM 51.8 °F - 50.0 °F 94% 30.11 in 10.0 mi Calm Calm - N/A   Clear
1:08 AM 51.8 °F - 50.0 °F 94% 30.11 in 10.0 mi Calm Calm - N/A   Clear
1:27 AM 51.8 °F - 50.0 °F 94% 30.11 in 10.0 mi Calm Calm - N/A   Clear
1:47 AM 51.8 °F - 50.0 °F 94% 30.10 in 10.0 mi Calm Calm - N/A   Clear
2:08 AM 51.8 °F - 50.0 °F 94% 30.09 in 10.0 mi Calm Calm - N/A   Clear
2:27 AM 51.8 °F - 50.0 °F 94% 30.09 in 10.0 mi Calm Calm - N/A   Clear
2:47 AM 51.8 °F - 51.8 °F 100% 30.09 in 10.0 mi Calm Calm - N/A   Clear
3:08 AM 51.8 °F - 50.0 °F 94% 30.07 in 10.0 mi Calm Calm - N/A   Clear
3:27 AM 53.6 °F - 51.8 °F 94% 30.07 in 10.0 mi Calm Calm - N/A   Clear
3:47 AM 51.8 °F - 51.8 °F 100% 30.07 in 10.0 mi Calm Calm - N/A   Clear
4:08 AM 53.6 °F - 51.8 °F 94% 30.08 in 10.0 mi Calm Calm - N/A   Clear
4:27 AM 53.6 °F - 53.6 °F 100% 30.07 in 10.0 mi Calm Calm - N/A   Clear
4:47 AM 55.4 °F - 53.6 °F 94% 30.06 in 10.0 mi Calm Calm - N/A   Clear
5:07 AM 55.4 °F - 53.6 °F 94% 30.05 in 10.0 mi Calm Calm - N/A   Clear
5:27 AM 53.6 °F - 51.8 °F 94% 30.05 in 10.0 mi NNE 3.5 mph - N/A   Clear
5:47 AM 53.6 °F - 51.8 °F 94% 30.05 in 10.0 mi Calm Calm - N/A   Clear
6:07 AM 51.8 °F - 51.8 °F 100% 30.05 in 4.0 mi Calm Calm - N/A   Clear
6:27 AM 51.8 °F - 51.8 °F 100% 30.04 in 5.0 mi Calm Calm - N/A   Clear
6:47 AM 51.8 °F - 51.8 °F 100% 30.04 in 7.0 mi NE 3.5 mph - N/A   Clear
7:07 AM 51.8 °F - 51.8 °F 100% 30.03 in 3.0 mi Calm Calm - N/A   Clear
7:27 AM 51.8 °F - 51.8 °F 100% 30.03 in 5.0 mi NNE 4.6 mph - N/A   Clear
7:47 AM 57.2 °F - 55.4 °F 94% 30.03 in 10.0 mi NNE 3.5 mph - N/A   Clear
8:07 AM 59.0 °F - 59.0 °F 100% 30.03 in 10.0 mi Calm Calm - N/A   Clear
8:27 AM 62.6 °F - 60.8 °F 94% 30.01 in 10.0 mi Calm Calm - N/A   Scattered Clouds
8:47 AM 62.6 °F - 59.0 °F 88% 30.02 in 10.0 mi Calm Calm - N/A   Mostly Cloudy
9:07 AM 68.0 °F - 62.6 °F 83% 30.01 in 10.0 mi SSW 6.9 mph - N/A   Mostly Cloudy
9:27 AM 69.8 °F - 64.4 °F 83% 30.01 in 10.0 mi SSW 5.8 mph - N/A   Overcast
9:47 AM 69.8 °F - 64.4 °F 83% 30.00 in 10.0 mi SSW 5.8 mph - N/A   Overcast
10:07 AM 71.6 °F - 64.4 °F 78% 30.00 in 10.0 mi SSW 5.8 mph - N/A   Overcast
10:27 AM 71.6 °F - 62.6 °F 73% 29.99 in 10.0 mi SW 9.2 mph - N/A   Overcast
10:47 AM 71.6 °F - 62.6 °F 73% 29.99 in 10.0 mi SW 5.8 mph - N/A   Overcast
11:07 AM 71.6 °F - 62.6 °F 73% 29.99 in 10.0 mi SW 8.1 mph - N/A   Overcast
11:27 AM 73.4 °F - 62.6 °F 69% 29.98 in 10.0 mi SW 10.4 mph - N/A   Overcast
11:47 AM 77.0 °F - 64.4 °F 65% 29.98 in 10.0 mi SW 12.7 mph 16.1 mph N/A   Overcast
12:07 PM 77.0 °F - 64.4 °F 65% 29.97 in 10.0 mi SW 6.9 mph - N/A   Scattered Clouds
12:27 PM 78.8 °F - 64.4 °F 61% 29.96 in 10.0 mi WSW 6.9 mph - N/A   Clear
12:47 PM 80.6 °F 82.3 °F 64.4 °F 58% 29.95 in 10.0 mi SW 6.9 mph - N/A   Clear
1:07 PM 80.6 °F 82.3 °F 64.4 °F 58% 29.94 in 10.0 mi WSW 11.5 mph 17.3 mph N/A   Scattered Clouds
1:27 PM 80.6 °F 82.3 °F 64.4 °F 58% 29.93 in 10.0 mi West 9.2 mph - N/A   Clear
1:47 PM 82.4 °F 83.9 °F 64.4 °F 54% 29.93 in 10.0 mi SW 11.5 mph - N/A   Clear
2:07 PM 82.4 °F 83.9 °F 64.4 °F 54% 29.92 in 10.0 mi SW 13.8 mph - N/A   Scattered Clouds
2:27 PM 82.4 °F 83.9 °F 64.4 °F 54% 29.92 in 10.0 mi SW 10.4 mph 16.1 mph N/A   Scattered Clouds
2:47 PM 82.4 °F 83.9 °F 64.4 °F 54% 29.91 in 10.0 mi SW 11.5 mph - N/A   Scattered Clouds
3:07 PM 82.4 °F 83.9 °F 64.4 °F 54% 29.91 in 10.0 mi WSW 8.1 mph - N/A   Scattered Clouds
3:27 PM 82.4 °F 83.9 °F 64.4 °F 54% 29.91 in 10.0 mi WSW 10.4 mph - N/A   Scattered Clouds
3:47 PM 82.4 °F 83.9 °F 64.4 °F 54% 29.91 in 10.0 mi West 9.2 mph - N/A   Scattered Clouds
4:07 PM 82.4 °F 83.9 °F 64.4 °F 54% 29.90 in 10.0 mi West 6.9 mph - N/A   Clear
4:28 PM 82.4 °F 84.6 °F 66.2 °F 58% 29.90 in 10.0 mi West 11.5 mph - N/A   Clear
4:47 PM 82.4 °F 84.6 °F 66.2 °F 58% 29.91 in 10.0 mi West 10.4 mph - N/A   Scattered Clouds
5:07 PM 82.4 °F 84.6 °F 66.2 °F 58% 29.90 in 10.0 mi West 6.9 mph - N/A   Scattered Clouds
5:28 PM 82.4 °F 84.6 °F 66.2 °F 58% 29.90 in 10.0 mi West 6.9 mph - N/A   Scattered Clouds
5:47 PM 80.6 °F 82.3 °F 64.4 °F 58% 29.90 in 10.0 mi West 6.9 mph - N/A   Mostly Cloudy
6:07 PM 80.6 °F 82.3 °F 64.4 °F 58% 29.90 in 10.0 mi West 4.6 mph - N/A   Scattered Clouds
6:27 PM 80.6 °F 82.7 °F 66.2 °F 61% 29.90 in 10.0 mi WNW 4.6 mph - N/A   Clear
6:47 PM 80.6 °F 82.7 °F 66.2 °F 61% 29.90 in 10.0 mi West 4.6 mph - N/A   Clear
7:07 PM 77.0 °F - 68.0 °F 74% 29.89 in 10.0 mi WNW 3.5 mph - N/A   Clear
7:27 PM - - - N/A% 2.96 in 10.0 mi Calm Calm - N/A   Clear
7:47 PM 71.6 °F - 68.0 °F 88% 29.90 in 10.0 mi Calm Calm - N/A   Clear
8:08 PM 71.6 °F - 69.8 °F 94% 29.90 in 10.0 mi Calm Calm - N/A   Clear
8:27 PM 71.6 °F - 69.8 °F 94% 29.91 in 10.0 mi NNW 3.5 mph - N/A   Clear
8:47 PM 71.6 °F - 68.0 °F 88% 29.91 in 10.0 mi NNW 5.8 mph - N/A   Clear
9:08 PM 71.6 °F - 66.2 °F 83% 29.90 in 10.0 mi NNW 6.9 mph - N/A   Clear
9:27 PM 71.6 °F - 68.0 °F 88% 29.90 in 10.0 mi Calm Calm - N/A   Clear
9:47 PM 68.0 °F - 64.4 °F 88% 29.91 in 10.0 mi Calm Calm - N/A   Clear
10:08 PM 68.0 °F - 64.4 °F 88% 29.91 in 10.0 mi Calm Calm - N/A   Clear
10:27 PM 68.0 °F - 64.4 °F 88% 29.91 in 10.0 mi Calm Calm - N/A   Clear
10:47 PM 68.0 °F - 64.4 °F 88% 29.92 in 10.0 mi Calm Calm - N/A   Clear
11:08 PM 66.2 °F - 64.4 °F 94% 29.91 in 10.0 mi Calm Calm - N/A   Clear
11:27 PM 64.4 °F - 62.6 °F 94% 29.92 in 5.0 mi Calm Calm - N/A   Clear
11:47 PM 64.4 °F - 62.6 °F 94% 29.92 in 5.0 mi Calm Calm - N/A   Clear